PRIVATE WETTERSTATION BILLIGHEIM-ALLFELD                       ZURCK
Wetterdaten: Montag, 07.07.2014
Datum Zeit Temp. A. Temp. A. min Temp. A. max Feuchte A. Luftdruck Regen Wind Richtung Richtung Sonnenschein ET Solar Taupunkt Windchill Windben Empfang
07.07.2014 00:00 16,8 C 16,8 C 16,9 C 86 % 1012,7 hPa 0,6 l/m 8,0 km/h (2 Bft) S-SW 202 0 min 0,025 mm 0 W/m 14,4 C 16,0 C 19,3 km/h (3 Bft) 97 %
07.07.2014 00:10 16,7 C 16,7 C 16,8 C 86 % 1013,1 hPa 0,6 l/m 12,9 km/h (3 Bft) S-SW 202 0 min 0,000 mm 0 W/m 14,3 C 13,9 C 22,5 km/h (4 Bft) 97 %
07.07.2014 00:20 16,6 C 16,6 C 16,7 C 86 % 1012,9 hPa 1,0 l/m 8,0 km/h (2 Bft) S-SW 202 0 min 0,000 mm 0 W/m 14,2 C 15,8 C 17,7 km/h (3 Bft) 98 %
07.07.2014 00:30 16,5 C 16,5 C 16,6 C 86 % 1012,6 hPa 1,4 l/m 1,6 km/h (1 Bft) S-SW 202 0 min 0,000 mm 0 W/m 14,1 C 16,5 C 8,0 km/h (2 Bft) 97 %
07.07.2014 00:40 16,6 C 16,5 C 16,6 C 86 % 1012,2 hPa 0,8 l/m 3,2 km/h (1 Bft) W 270 0 min 0,000 mm 0 W/m 14,2 C 16,6 C 11,3 km/h (2 Bft) 98 %
07.07.2014 00:50 16,5 C 16,5 C 16,6 C 86 % 1012,0 hPa 0,8 l/m 6,4 km/h (2 Bft) NW 315 0 min 0,000 mm 0 W/m 14,1 C 16,5 C 16,1 km/h (3 Bft) 97 %
07.07.2014 01:00 16,4 C 16,4 C 16,6 C 86 % 1011,4 hPa 0,8 l/m 8,0 km/h (2 Bft) NW 315 0 min 0,025 mm 0 W/m 14,1 C 15,6 C 20,9 km/h (4 Bft) 97 %
07.07.2014 01:10 16,4 C 16,4 C 16,4 C 87 % 1011,6 hPa 0,4 l/m 3,2 km/h (1 Bft) N-NW 337 0 min 0,000 mm 0 W/m 14,2 C 16,4 C 9,7 km/h (2 Bft) 97 %
07.07.2014 01:20 16,3 C 16,3 C 16,4 C 87 % 1011,4 hPa 0,0 l/m 0,0 km/h (0 Bft) N 360 0 min 0,000 mm 0 W/m 14,1 C 16,3 C 6,4 km/h (2 Bft) 98 %
07.07.2014 01:30 16,3 C 16,3 C 16,3 C 87 % 1011,6 hPa 0,0 l/m 0,0 km/h (0 Bft) O-NO 67 0 min 0,000 mm 0 W/m 14,1 C 16,3 C 4,8 km/h (1 Bft) 98 %
07.07.2014 01:40 16,3 C 16,2 C 16,3 C 87 % 1012,6 hPa 0,0 l/m 6,4 km/h (2 Bft) S-SW 202 0 min 0,000 mm 0 W/m 14,1 C 16,3 C 16,1 km/h (3 Bft) 98 %
07.07.2014 01:50 16,2 C 16,2 C 16,3 C 87 % 1013,0 hPa 0,0 l/m 8,0 km/h (2 Bft) S-SW 202 0 min 0,000 mm 0 W/m 14,0 C 15,4 C 16,1 km/h (3 Bft) 98 %
07.07.2014 02:00 16,3 C 16,2 C 16,3 C 87 % 1013,4 hPa 0,2 l/m 9,7 km/h (2 Bft) S-SO 157 0 min 0,025 mm 0 W/m 14,1 C 14,7 C 20,9 km/h (4 Bft) 97 %
07.07.2014 02:10 16,3 C 16,3 C 16,3 C 87 % 1013,4 hPa 0,0 l/m 11,3 km/h (2 Bft) S-SO 157 0 min 0,000 mm 0 W/m 14,1 C 14,0 C 20,9 km/h (4 Bft) 97 %
07.07.2014 02:20 16,3 C 16,3 C 16,3 C 87 % 1013,3 hPa 0,0 l/m 6,4 km/h (2 Bft) S-SO 157 0 min 0,000 mm 0 W/m 14,1 C 16,3 C 16,1 km/h (3 Bft) 97 %
07.07.2014 02:30 16,4 C 16,3 C 16,4 C 86 % 1013,2 hPa 0,0 l/m 3,2 km/h (1 Bft) S-SO 157 0 min 0,000 mm 0 W/m 14,1 C 16,4 C 9,7 km/h (2 Bft) 97 %
07.07.2014 02:40 16,4 C 16,4 C 16,4 C 87 % 1013,2 hPa 0,0 l/m 1,6 km/h (1 Bft) S-SO 157 0 min 0,000 mm 0 W/m 14,2 C 16,4 C 8,0 km/h (2 Bft) 98 %
07.07.2014 02:50 16,3 C 16,3 C 16,4 C 87 % 1013,2 hPa 0,0 l/m 0,0 km/h (0 Bft) S-SO 157 0 min 0,000 mm 0 W/m 14,1 C 16,3 C 1,6 km/h (1 Bft) 98 %
07.07.2014 03:00 16,3 C 16,3 C 16,3 C 87 % 1013,0 hPa 0,0 l/m 0,0 km/h (0 Bft) S-SO 157 0 min 0,025 mm 0 W/m 14,1 C 16,3 C 1,6 km/h (1 Bft) 97 %
07.07.2014 03:10 16,3 C 16,3 C 16,3 C 87 % 1012,9 hPa 0,0 l/m 0,0 km/h (0 Bft) N 0 0 min 0,000 mm 0 W/m 14,1 C 16,3 C 0,0 km/h (0 Bft) 98 %
07.07.2014 03:20 16,3 C 16,3 C 16,3 C 87 % 1012,8 hPa 0,0 l/m 0,0 km/h (0 Bft) S-SO 157 0 min 0,000 mm 0 W/m 14,1 C 16,3 C 1,6 km/h (1 Bft) 98 %
07.07.2014 03:30 16,3 C 16,3 C 16,3 C 87 % 1012,8 hPa 0,0 l/m 0,0 km/h (0 Bft) S-SO 157 0 min 0,000 mm 0 W/m 14,1 C 16,3 C 3,2 km/h (1 Bft) 98 %
07.07.2014 03:40 16,3 C 16,3 C 16,3 C 87 % 1012,7 hPa 0,0 l/m 1,6 km/h (1 Bft) S-SO 157 0 min 0,000 mm 0 W/m 14,1 C 16,3 C 6,4 km/h (2 Bft) 97 %
07.07.2014 03:50 16,4 C 16,3 C 16,4 C 87 % 1012,8 hPa 0,0 l/m 1,6 km/h (1 Bft) W-NW 292 0 min 0,000 mm 0 W/m 14,2 C 16,4 C 4,8 km/h (1 Bft) 97 %
07.07.2014 04:00 16,4 C 16,4 C 16,4 C 87 % 1012,8 hPa 0,0 l/m 1,6 km/h (1 Bft) W-NW 292 0 min 0,000 mm 0 W/m 14,2 C 16,4 C 4,8 km/h (1 Bft) 98 %
07.07.2014 04:10 16,3 C 16,3 C 16,4 C 87 % 1013,3 hPa 0,0 l/m 0,0 km/h (0 Bft) W-NW 292 0 min 0,000 mm 0 W/m 14,1 C 16,3 C 1,6 km/h (1 Bft) 98 %
07.07.2014 04:20 16,3 C 16,3 C 16,3 C 87 % 1013,5 hPa 0,0 l/m 1,6 km/h (1 Bft) W-NW 292 0 min 0,000 mm 0 W/m 14,1 C 16,3 C 4,8 km/h (1 Bft) 98 %
07.07.2014 04:30 16,3 C 16,3 C 16,3 C 87 % 1013,6 hPa 0,0 l/m 4,8 km/h (1 Bft) SO 135 0 min 0,000 mm 0 W/m 14,1 C 16,3 C 9,7 km/h (2 Bft) 96 %
07.07.2014 04:40 16,3 C 16,3 C 16,3 C 87 % 1013,7 hPa 0,0 l/m 4,8 km/h (1 Bft) S-SO 157 0 min 0,000 mm 0 W/m 14,1 C 16,3 C 9,7 km/h (2 Bft) 98 %
07.07.2014 04:50 16,4 C 16,3 C 16,4 C 87 % 1013,8 hPa 0,0 l/m 3,2 km/h (1 Bft) S-SO 157 0 min 0,000 mm 0 W/m 14,2 C 16,4 C 8,0 km/h (2 Bft) 98 %
07.07.2014 05:00 16,4 C 16,4 C 16,4 C 87 % 1013,8 hPa 0,0 l/m 3,2 km/h (1 Bft) S-SO 157 0 min 0,025 mm 0 W/m 14,2 C 16,4 C 8,0 km/h (2 Bft) 97 %
07.07.2014 05:10 16,4 C 16,4 C 16,5 C 87 % 1013,9 hPa 0,0 l/m 1,6 km/h (1 Bft) S-SO 157 0 min 0,000 mm 0 W/m 14,2 C 16,4 C 6,4 km/h (2 Bft) 98 %
07.07.2014 05:20 16,4 C 16,4 C 16,5 C 87 % 1014,1 hPa 0,2 l/m 1,6 km/h (1 Bft) SO 135 0 min 0,000 mm 0 W/m 14,2 C 16,4 C 8,0 km/h (2 Bft) 98 %
07.07.2014 05:30 16,4 C 16,4 C 16,5 C 87 % 1014,1 hPa 0,0 l/m 1,6 km/h (1 Bft) SO 135 0 min 0,000 mm 0 W/m 14,2 C 16,4 C 4,8 km/h (1 Bft) 98 %
07.07.2014 05:40 16,4 C 16,4 C 16,4 C 87 % 1014,0 hPa 0,2 l/m 1,6 km/h (1 Bft) SO 135 0 min 0,000 mm 0 W/m 14,2 C 16,4 C 8,0 km/h (2 Bft) 98 %
07.07.2014 05:50 16,4 C 16,4 C 16,5 C 87 % 1014,0 hPa 0,0 l/m 1,6 km/h (1 Bft) S-SO 157 0 min 0,000 mm 0 W/m 14,2 C 16,4 C 8,0 km/h (2 Bft) 97 %
07.07.2014 06:00 16,5 C 16,4 C 16,5 C 87 % 1014,3 hPa 0,0 l/m 1,6 km/h (1 Bft) S-SO 157 0 min 0,000 mm 0 W/m 14,3 C 16,5 C 6,4 km/h (2 Bft) 97 %
07.07.2014 06:10 16,6 C 16,5 C 16,6 C 87 % 1014,3 hPa 0,0 l/m 0,0 km/h (0 Bft) S-SO 157 0 min 0,000 mm 0 W/m 14,4 C 16,6 C 1,6 km/h (1 Bft) 97 %
07.07.2014 06:20 16,6 C 16,6 C 16,6 C 87 % 1014,3 hPa 0,0 l/m 0,0 km/h (0 Bft) S-SO 157 0 min 0,000 mm 11 W/m 14,4 C 16,6 C 1,6 km/h (1 Bft) 98 %
07.07.2014 06:30 16,6 C 16,6 C 16,6 C 87 % 1014,3 hPa 0,0 l/m 1,6 km/h (1 Bft) S-SO 157 0 min 0,000 mm 21 W/m 14,4 C 16,6 C 6,4 km/h (2 Bft) 97 %
07.07.2014 06:40 16,6 C 16,6 C 16,6 C 87 % 1014,3 hPa 0,0 l/m 0,0 km/h (0 Bft) S-SO 157 0 min 0,000 mm 33 W/m 14,4 C 16,6 C 1,6 km/h (1 Bft) 97 %
07.07.2014 06:50 16,7 C 16,6 C 16,7 C 87 % 1014,4 hPa 0,0 l/m 0,0 km/h (0 Bft) S-SO 157 0 min 0,000 mm 37 W/m 14,5 C 16,7 C 1,6 km/h (1 Bft) 97 %
07.07.2014 07:00 16,7 C 16,7 C 16,7 C 87 % 1014,3 hPa 0,0 l/m 0,0 km/h (0 Bft) S-SO 157 0 min 0,025 mm 49 W/m 14,5 C 16,7 C 4,8 km/h (1 Bft) 98 %
07.07.2014 07:10 16,8 C 16,7 C 16,8 C 87 % 1014,6 hPa 0,0 l/m 0,0 km/h (0 Bft) S-SO 157 0 min 0,000 mm 56 W/m 14,6 C 16,8 C 4,8 km/h (1 Bft) 98 %
07.07.2014 07:20 16,9 C 16,8 C 16,9 C 87 % 1014,6 hPa 0,0 l/m 0,0 km/h (0 Bft) S-SO 157 0 min 0,000 mm 49 W/m 14,7 C 16,9 C 3,2 km/h (1 Bft) 98 %
07.07.2014 07:30 16,9 C 16,9 C 16,9 C 87 % 1014,6 hPa 0,0 l/m 0,0 km/h (0 Bft) S-SO 157 0 min 0,000 mm 74 W/m 14,7 C 16,9 C 1,6 km/h (1 Bft) 98 %
07.07.2014 07:40 17,0 C 16,9 C 17,0 C 87 % 1014,6 hPa 0,0 l/m 0,0 km/h (0 Bft) S-SO 157 0 min 0,000 mm 109 W/m 14,8 C 17,0 C 1,6 km/h (1 Bft) 98 %
07.07.2014 07:50 17,1 C 17,0 C 17,1 C 87 % 1014,7 hPa 0,0 l/m 0,0 km/h (0 Bft) S-SO 157 0 min 0,000 mm 90 W/m 14,9 C 17,1 C 1,6 km/h (1 Bft) 98 %
07.07.2014 08:00 17,1 C 17,1 C 17,2 C 87 % 1014,8 hPa 0,0 l/m 0,0 km/h (0 Bft) S-SO 157 0 min 0,025 mm 79 W/m 14,9 C 17,1 C 1,6 km/h (1 Bft) 96 %
07.07.2014 08:10 17,1 C 17,1 C 17,1 C 87 % 1014,8 hPa 0,0 l/m 0,0 km/h (0 Bft) S-SO 157 0 min 0,000 mm 90 W/m 14,9 C 17,1 C 1,6 km/h (1 Bft) 98 %
07.07.2014 08:20 17,2 C 17,1 C 17,2 C 87 % 1014,8 hPa 0,0 l/m 0,0 km/h (0 Bft) S-SO 157 0 min 0,000 mm 105 W/m 15,0 C 17,2 C 1,6 km/h (1 Bft) 97 %
07.07.2014 08:30 17,4 C 17,2 C 17,4 C 87 % 1014,9 hPa 0,0 l/m 1,6 km/h (1 Bft) S-SO 157 10 min 0,000 mm 202 W/m 15,2 C 17,4 C 4,8 km/h (1 Bft) 97 %
07.07.2014 08:40 17,6 C 17,4 C 17,6 C 87 % 1014,9 hPa 0,0 l/m 0,0 km/h (0 Bft) SW 225 10 min 0,000 mm 195 W/m 15,4 C 17,6 C 3,2 km/h (1 Bft) 97 %
07.07.2014 08:50 17,6 C 17,6 C 17,6 C 87 % 1015,1 hPa 0,0 l/m 0,0 km/h (0 Bft) W-SW 247 10 min 0,000 mm 211 W/m 15,4 C 17,6 C 4,8 km/h (1 Bft) 98 %
07.07.2014 09:00 17,6 C 17,6 C 17,7 C 87 % 1014,9 hPa 0,0 l/m 0,0 km/h (0 Bft) W-SW 247 10 min 0,076 mm 287 W/m 15,4 C 17,6 C 3,2 km/h (1 Bft) 98 %
07.07.2014 09:10 17,8 C 17,7 C 17,8 C 87 % 1015,0 hPa 0,0 l/m 0,0 km/h (0 Bft) W 270 10 min 0,000 mm 278 W/m 15,6 C 17,8 C 4,8 km/h (1 Bft) 97 %
07.07.2014 09:20 17,8 C 17,8 C 17,8 C 87 % 1015,0 hPa 0,0 l/m 0,0 km/h (0 Bft) W 270 10 min 0,000 mm 153 W/m 15,6 C 17,8 C 6,4 km/h (2 Bft) 97 %
07.07.2014 09:30 17,8 C 17,8 C 17,8 C 87 % 1015,1 hPa 0,0 l/m 0,0 km/h (0 Bft) W 270 10 min 0,000 mm 165 W/m 15,6 C 17,8 C 1,6 km/h (1 Bft) 98 %
07.07.2014 09:40 17,9 C 17,8 C 17,9 C 87 % 1015,3 hPa 0,0 l/m 0,0 km/h (0 Bft) W 270 10 min 0,000 mm 174 W/m 15,7 C 17,9 C 4,8 km/h (1 Bft) 97 %
07.07.2014 09:50 17,9 C 17,9 C 17,9 C 87 % 1015,2 hPa 0,0 l/m 0,0 km/h (0 Bft) W 270 10 min 0,000 mm 158 W/m 15,7 C 17,9 C 3,2 km/h (1 Bft) 99 %
07.07.2014 10:00 18,1 C 17,9 C 18,1 C 87 % 1015,3 hPa 0,0 l/m 0,0 km/h (0 Bft) W 270 10 min 0,102 mm 195 W/m 15,9 C 18,1 C 1,6 km/h (1 Bft) 100 %
07.07.2014 10:10 18,3 C 18,1 C 18,3 C 87 % 1015,2 hPa 0,0 l/m 0,0 km/h (0 Bft) W 270 10 min 0,000 mm 197 W/m 16,1 C 18,3 C 1,6 km/h (1 Bft) 100 %
07.07.2014 10:20 18,3 C 18,3 C 18,3 C 87 % 1015,3 hPa 0,0 l/m 0,0 km/h (0 Bft) W 270 10 min 0,000 mm 186 W/m 16,1 C 18,3 C 1,6 km/h (1 Bft) 100 %
07.07.2014 10:30 18,3 C 18,3 C 18,3 C 87 % 1015,3 hPa 0,0 l/m 0,0 km/h (0 Bft) N 0 10 min 0,000 mm 193 W/m 16,1 C 18,3 C 0,0 km/h (0 Bft) 99 %
07.07.2014 10:40 18,4 C 18,2 C 18,4 C 87 % 1015,4 hPa 0,0 l/m 0,0 km/h (0 Bft) W 270 10 min 0,000 mm 366 W/m 16,2 C 18,4 C 1,6 km/h (1 Bft) 99 %
07.07.2014 10:50 18,6 C 18,4 C 18,6 C 86 % 1015,4 hPa 0,0 l/m 0,0 km/h (0 Bft) W 270 10 min 0,000 mm 348 W/m 16,2 C 18,6 C 1,6 km/h (1 Bft) 100 %
07.07.2014 11:00 18,9 C 18,4 C 18,9 C 86 % 1015,4 hPa 0,0 l/m 0,7 km/h (0 Bft) W 271 0 min 0,104 mm 146 W/m 16,5 C 18,9 C 8,0 km/h (2 Bft) 98 %
07.07.2014 11:10 19,1 C 18,9 C 19,1 C 86 % 1015,5 hPa 0,0 l/m 0,6 km/h (0 Bft) W 273 10 min 0,000 mm 214 W/m 16,7 C 19,1 C 6,4 km/h (2 Bft) 98 %
07.07.2014 11:20 19,2 C 19,1 C 19,2 C 86 % 1015,4 hPa 0,0 l/m 0,4 km/h (0 Bft) W-NW 302 10 min 0,000 mm 250 W/m 16,8 C 19,2 C 4,8 km/h (1 Bft) 97 %
07.07.2014 11:30 19,2 C 19,2 C 19,3 C 86 % 1015,6 hPa 0,0 l/m 0,2 km/h (0 Bft) W-NW 302 0 min 0,000 mm 123 W/m 16,8 C 19,2 C 4,8 km/h (1 Bft) 97 %
07.07.2014 11:40 19,2 C 19,2 C 19,2 C 86 % 1015,7 hPa 0,0 l/m 0,9 km/h (0 Bft) NW 315 0 min 0,000 mm 105 W/m 16,8 C 19,2 C 6,4 km/h (2 Bft) 98 %
07.07.2014 11:50 19,1 C 19,1 C 19,2 C 86 % 1015,7 hPa 0,0 l/m 0,1 km/h (0 Bft) NW 315 0 min 0,000 mm 79 W/m 16,7 C 19,1 C 6,4 km/h (2 Bft) 99 %
07.07.2014 12:00 19,0 C 19,0 C 19,1 C 85 % 1015,7 hPa 0,0 l/m 0,1 km/h (0 Bft) NW 308 0 min 0,102 mm 132 W/m 16,4 C 19,0 C 3,2 km/h (1 Bft) 91 %
07.07.2014 12:10 19,0 C 18,9 C 19,0 C 86 % 1015,5 hPa 0,0 l/m 0,5 km/h (0 Bft) NW 308 10 min 0,000 mm 410 W/m 16,6 C 19,0 C 4,8 km/h (1 Bft) 97 %
07.07.2014 12:20 19,4 C 19,0 C 19,4 C 86 % 1015,4 hPa 0,0 l/m 1,9 km/h (1 Bft) N-NW 334 10 min 0,000 mm 513 W/m 17,0 C 19,4 C 8,0 km/h (2 Bft) 98 %
07.07.2014 12:30 20,3 C 19,4 C 20,3 C 83 % 1015,3 hPa 0,0 l/m 4,6 km/h (1 Bft) NW 319 10 min 0,000 mm 397 W/m 17,3 C 20,3 C 11,3 km/h (2 Bft) 97 %
07.07.2014 12:40 20,7 C 20,3 C 20,7 C 81 % 1015,2 hPa 0,0 l/m 4,9 km/h (1 Bft) NW 325 10 min 0,000 mm 443 W/m 17,3 C 20,7 C 9,7 km/h (2 Bft) 97 %
07.07.2014 12:50 20,9 C 20,7 C 20,9 C 81 % 1015,1 hPa 0,0 l/m 2,3 km/h (1 Bft) W-NW 302 10 min 0,000 mm 387 W/m 17,5 C 20,9 C 14,5 km/h (3 Bft) 98 %
07.07.2014 13:00 21,1 C 20,9 C 21,1 C 80 % 1015,1 hPa 0,0 l/m 3,0 km/h (1 Bft) NW 317 10 min 0,254 mm 248 W/m 17,5 C 21,1 C 16,1 km/h (3 Bft) 98 %
07.07.2014 13:10 20,6 C 20,6 C 21,1 C 82 % 1015,1 hPa 0,0 l/m 0,1 km/h (0 Bft) W-SW 242 10 min 0,000 mm 369 W/m 17,4 C 20,6 C 3,2 km/h (1 Bft) 98 %
07.07.2014 13:20 20,4 C 20,4 C 20,6 C 82 % 1015,1 hPa 0,0 l/m 1,0 km/h (0 Bft) NW 325 10 min 0,000 mm 218 W/m 17,2 C 20,4 C 9,7 km/h (2 Bft) 97 %
07.07.2014 13:30 20,3 C 20,3 C 20,4 C 82 % 1015,2 hPa 0,0 l/m 0,4 km/h (0 Bft) N-NW 329 0 min 0,000 mm 149 W/m 17,1 C 20,3 C 4,8 km/h (1 Bft) 97 %
07.07.2014 13:40 20,1 C 20,1 C 20,3 C 81 % 1015,1 hPa 0,0 l/m 0,2 km/h (0 Bft) N-NW 330 10 min 0,000 mm 211 W/m 16,7 C 20,1 C 3,2 km/h (1 Bft) 97 %
07.07.2014 13:50 20,1 C 20,1 C 20,1 C 82 % 1015,0 hPa 0,0 l/m 0,1 km/h (0 Bft) N-NW 330 10 min 0,000 mm 302 W/m 16,9 C 20,1 C 4,8 km/h (1 Bft) 97 %
07.07.2014 14:00 20,3 C 20,1 C 20,3 C 83 % 1015,0 hPa 0,0 l/m 1,1 km/h (1 Bft) NW 315 10 min 0,178 mm 645 W/m 17,3 C 20,3 C 6,4 km/h (2 Bft) 98 %
07.07.2014 14:10 21,3 C 20,3 C 21,3 C 80 % 1014,8 hPa 0,0 l/m 8,3 km/h (2 Bft) N-NW 331 10 min 0,000 mm 858 W/m 17,7 C 20,6 C 16,1 km/h (3 Bft) 97 %
07.07.2014 14:20 21,9 C 21,3 C 21,9 C 78 % 1014,8 hPa 0,0 l/m 1,7 km/h (1 Bft) NW 310 10 min 0,000 mm 496 W/m 17,9 C 21,9 C 16,1 km/h (3 Bft) 98 %
07.07.2014 14:30 21,9 C 21,9 C 22,1 C 76 % 1014,7 hPa 0,0 l/m 1,4 km/h (1 Bft) NW 314 10 min 0,000 mm 373 W/m 17,5 C 21,9 C 9,7 km/h (2 Bft) 97 %
07.07.2014 14:40 21,8 C 21,8 C 21,9 C 77 % 1014,7 hPa 0,0 l/m 1,6 km/h (1 Bft) NW 310 10 min 0,000 mm 353 W/m 17,6 C 21,8 C 9,7 km/h (2 Bft) 98 %
07.07.2014 14:50 21,7 C 21,7 C 21,8 C 78 % 1014,7 hPa 0,0 l/m 0,2 km/h (0 Bft) N 5 10 min 0,000 mm 439 W/m 17,7 C 21,7 C 3,2 km/h (1 Bft) 97 %
07.07.2014 15:00 21,7 C 21,6 C 21,7 C 78 % 1014,4 hPa 0,0 l/m 0,5 km/h (0 Bft) W-NW 299 10 min 0,304 mm 306 W/m 17,7 C 21,7 C 6,4 km/h (2 Bft) 97 %
07.07.2014 15:10 22,0 C 21,7 C 22,0 C 80 % 1014,2 hPa 0,0 l/m 0,2 km/h (0 Bft) NW 311 10 min 0,000 mm 573 W/m 18,4 C 22,0 C 9,7 km/h (2 Bft) 98 %
07.07.2014 15:20 22,4 C 22,0 C 22,4 C 80 % 1013,9 hPa 0,0 l/m 0,9 km/h (0 Bft) W-NW 284 10 min 0,000 mm 527 W/m 18,8 C 22,4 C 8,0 km/h (2 Bft) 97 %
07.07.2014 15:30 22,8 C 22,4 C 22,8 C 75 % 1013,7 hPa 0,0 l/m 2,3 km/h (1 Bft) S-SW 199 10 min 0,000 mm 603 W/m 18,1 C 22,8 C 11,3 km/h (2 Bft) 98 %
07.07.2014 15:40 22,9 C 22,8 C 22,9 C 73 % 1013,5 hPa 0,0 l/m 0,5 km/h (0 Bft) NW 304 10 min 0,000 mm 874 W/m 17,8 C 22,9 C 4,8 km/h (1 Bft) 97 %
07.07.2014 15:50 23,2 C 22,9 C 23,2 C 71 % 1013,5 hPa 0,0 l/m 0,9 km/h (0 Bft) W-NW 302 10 min 0,000 mm 557 W/m 17,6 C 23,2 C 8,0 km/h (2 Bft) 97 %
07.07.2014 16:00 23,4 C 23,2 C 23,4 C 72 % 1013,5 hPa 0,0 l/m 0,2 km/h (0 Bft) S 186 10 min 0,331 mm 320 W/m 18,1 C 23,4 C 4,8 km/h (1 Bft) 98 %
07.07.2014 16:10 23,4 C 23,4 C 23,4 C 72 % 1013,4 hPa 0,0 l/m 0,7 km/h (0 Bft) NW 317 10 min 0,000 mm 555 W/m 18,1 C 23,4 C 8,0 km/h (2 Bft) 97 %
07.07.2014 16:20 23,6 C 23,4 C 23,6 C 72 % 1013,3 hPa 0,0 l/m 3,4 km/h (1 Bft) NW 320 10 min 0,000 mm 357 W/m 18,2 C 23,6 C 11,3 km/h (2 Bft) 97 %
07.07.2014 16:30 23,4 C 23,4 C 23,6 C 71 % 1013,1 hPa 0,0 l/m 1,4 km/h (1 Bft) NW 324 10 min 0,000 mm 457 W/m 17,8 C 23,4 C 8,0 km/h (2 Bft) 97 %
07.07.2014 16:40 23,3 C 23,3 C 23,4 C 70 % 1012,9 hPa 0,0 l/m 1,6 km/h (1 Bft) N-NW 327 10 min 0,000 mm 318 W/m 17,5 C 23,3 C 14,5 km/h (3 Bft) 98 %
07.07.2014 16:50 23,2 C 23,2 C 23,3 C 72 % 1012,7 hPa 0,0 l/m 0,3 km/h (0 Bft) S-SW 200 10 min 0,000 mm 313 W/m 17,9 C 23,2 C 8,0 km/h (2 Bft) 97 %
07.07.2014 17:00 23,2 C 23,2 C 23,2 C 73 % 1012,6 hPa 0,0 l/m 0,1 km/h (0 Bft) S-SW 195 10 min 0,254 mm 271 W/m 18,1 C 23,2 C 3,2 km/h (1 Bft) 97 %
07.07.2014 17:10 23,3 C 23,2 C 23,3 C 73 % 1012,5 hPa 0,0 l/m 0,0 km/h (0 Bft) NW 315 10 min 0,000 mm 350 W/m 18,2 C 23,3 C 1,6 km/h (1 Bft) 98 %
07.07.2014 17:20 23,4 C 23,3 C 23,4 C 71 % 1012,4 hPa 0,0 l/m 0,3 km/h (0 Bft) SO 142 10 min 0,000 mm 392 W/m 17,8 C 23,4 C 4,8 km/h (1 Bft) 97 %
07.07.2014 17:30 23,6 C 23,4 C 23,6 C 72 % 1012,3 hPa 0,0 l/m 0,6 km/h (0 Bft) W 261 10 min 0,000 mm 315 W/m 18,2 C 23,6 C 6,4 km/h (2 Bft) 98 %
07.07.2014 17:40 23,8 C 23,6 C 23,8 C 71 % 1012,4 hPa 0,0 l/m 0,4 km/h (0 Bft) NW 317 10 min 0,000 mm 420 W/m 18,2 C 23,8 C 8,0 km/h (2 Bft) 97 %
07.07.2014 17:50 24,1 C 23,8 C 24,1 C 68 % 1012,4 hPa 0,0 l/m 1,5 km/h (1 Bft) S 184 10 min 0,000 mm 536 W/m 17,8 C 24,1 C 16,1 km/h (3 Bft) 97 %
07.07.2014 18:00 24,2 C 24,1 C 24,2 C 66 % 1012,3 hPa 0,0 l/m 1,0 km/h (0 Bft) S 172 10 min 0,254 mm 452 W/m 17,4 C 24,2 C 8,0 km/h (2 Bft) 97 %
07.07.2014 18:10 24,0 C 24,0 C 24,2 C 68 % 1012,3 hPa 0,0 l/m 0,0 km/h (0 Bft) SO 139 10 min 0,000 mm 206 W/m 17,7 C 24,0 C 1,6 km/h (1 Bft) 97 %
07.07.2014 18:20 23,7 C 23,7 C 24,0 C 70 % 1012,3 hPa 0,0 l/m 0,4 km/h (0 Bft) SW 215 10 min 0,000 mm 262 W/m 17,9 C 23,7 C 6,4 km/h (2 Bft) 97 %
07.07.2014 18:30 23,6 C 23,6 C 23,7 C 69 % 1012,1 hPa 0,0 l/m 0,8 km/h (0 Bft) N-NW 341 10 min 0,000 mm 172 W/m 17,6 C 23,6 C 9,7 km/h (2 Bft) 97 %
07.07.2014 18:40 23,2 C 23,2 C 23,6 C 71 % 1012,0 hPa 0,0 l/m 0,1 km/h (0 Bft) SO 130 0 min 0,000 mm 151 W/m 17,6 C 23,2 C 3,2 km/h (1 Bft) 98 %
07.07.2014 18:50 22,9 C 22,9 C 23,2 C 72 % 1012,0 hPa 0,0 l/m 0,0 km/h (0 Bft) SW 222 0 min 0,000 mm 151 W/m 17,6 C 22,9 C 1,6 km/h (1 Bft) 97 %
07.07.2014 19:00 22,8 C 22,8 C 22,9 C 70 % 1011,9 hPa 0,0 l/m 0,3 km/h (0 Bft) W-SW 242 10 min 0,127 mm 165 W/m 17,0 C 22,8 C 8,0 km/h (2 Bft) 98 %
07.07.2014 19:10 22,8 C 22,8 C 22,8 C 72 % 1011,7 hPa 0,0 l/m 0,2 km/h (0 Bft) W 261 0 min 0,000 mm 120 W/m 17,5 C 22,8 C 4,8 km/h (1 Bft) 97 %
07.07.2014 19:20 22,7 C 22,7 C 22,8 C 72 % 1011,6 hPa 0,0 l/m 0,2 km/h (0 Bft) N 349 0 min 0,000 mm 83 W/m 17,4 C 22,7 C 6,4 km/h (2 Bft) 97 %
07.07.2014 19:30 22,4 C 22,4 C 22,7 C 72 % 1011,5 hPa 0,0 l/m 0,2 km/h (0 Bft) W-SW 238 0 min 0,000 mm 97 W/m 17,1 C 22,4 C 4,8 km/h (1 Bft) 98 %
07.07.2014 19:40 22,3 C 22,3 C 22,4 C 73 % 1011,4 hPa 0,0 l/m 0,0 km/h (0 Bft) W-SW 239 0 min 0,000 mm 123 W/m 17,2 C 22,3 C 1,6 km/h (1 Bft) 97 %
07.07.2014 19:50 22,3 C 22,2 C 22,3 C 74 % 1011,3 hPa 0,0 l/m 0,0 km/h (0 Bft) W-SW 239 0 min 0,000 mm 123 W/m 17,4 C 22,3 C 1,6 km/h (1 Bft) 98 %
07.07.2014 20:00 22,2 C 22,2 C 22,3 C 74 % 1011,3 hPa 0,0 l/m 0,0 km/h (0 Bft) W-SW 239 0 min 0,076 mm 90 W/m 17,3 C 22,2 C 1,6 km/h (1 Bft) 97 %
07.07.2014 20:10 22,2 C 22,1 C 22,2 C 75 % 1011,1 hPa 0,0 l/m 0,1 km/h (0 Bft) W-SW 239 0 min 0,000 mm 65 W/m 17,5 C 22,2 C 3,2 km/h (1 Bft) 97 %
07.07.2014 20:20 22,0 C 21,9 C 22,2 C 73 % 1011,1 hPa 0,0 l/m 0,0 km/h (0 Bft) W-SW 239 0 min 0,000 mm 69 W/m 16,9 C 22,0 C 0,0 km/h (0 Bft) 98 %
07.07.2014 20:30 21,8 C 21,8 C 22,0 C 74 % 1010,9 hPa 0,0 l/m 0,0 km/h (0 Bft) W-SW 239 0 min 0,000 mm 65 W/m 17,0 C 21,8 C 0,0 km/h (0 Bft) 97 %
07.07.2014 20:40 21,7 C 21,7 C 21,8 C 76 % 1010,8 hPa 0,0 l/m 0,0 km/h (0 Bft) W-SW 239 0 min 0,000 mm 46 W/m 17,3 C 21,7 C 0,0 km/h (0 Bft) 97 %
07.07.2014 20:50 21,4 C 21,4 C 21,7 C 76 % 1010,7 hPa 0,0 l/m 0,1 km/h (0 Bft) W-SW 239 0 min 0,000 mm 30 W/m 17,0 C 21,4 C 3,2 km/h (1 Bft) 97 %
07.07.2014 21:00 21,2 C 21,2 C 21,4 C 76 % 1010,8 hPa 0,0 l/m 0,0 km/h (0 Bft) W-SW 239 0 min 0,025 mm 23 W/m 16,8 C 21,2 C 0,0 km/h (0 Bft) 98 %
07.07.2014 21:10 20,9 C 20,9 C 21,2 C 78 % 1010,8 hPa 0,0 l/m 0,0 km/h (0 Bft) N 0 0 min 0,000 mm 21 W/m 16,9 C 20,9 C 0,0 km/h (0 Bft) 100 %
07.07.2014 21:20 20,6 C 20,6 C 20,9 C 79 % 1010,7 hPa 0,0 l/m 0,0 km/h (0 Bft) N 0 0 min 0,000 mm 14 W/m 16,8 C 20,6 C 0,0 km/h (0 Bft) 99 %
07.07.2014 21:30 20,2 C 20,2 C 20,6 C 79 % 1010,7 hPa 0,0 l/m 0,0 km/h (0 Bft) W-SW 247 0 min 0,000 mm 5 W/m 16,4 C 20,2 C 1,6 km/h (1 Bft) 100 %
07.07.2014 21:40 19,9 C 19,9 C 20,2 C 80 % 1010,6 hPa 0,0 l/m 0,0 km/h (0 Bft) W-SW 247 0 min 0,000 mm 0 W/m 16,3 C 19,9 C 3,2 km/h (1 Bft) 99 %
07.07.2014 21:50 19,6 C 19,6 C 19,9 C 81 % 1010,7 hPa 0,0 l/m 0,0 km/h (0 Bft) N 0 0 min 0,000 mm 0 W/m 16,2 C 19,6 C 0,0 km/h (0 Bft) 100 %
07.07.2014 22:00 19,3 C 19,3 C 19,6 C 82 % 1010,6 hPa 0,0 l/m 0,0 km/h (0 Bft) W-SW 247 0 min 0,000 mm 0 W/m 16,1 C 19,3 C 1,6 km/h (1 Bft) 100 %
07.07.2014 22:10 19,0 C 19,0 C 19,3 C 83 % 1010,6 hPa 0,0 l/m 0,0 km/h (0 Bft) W-SW 247 0 min 0,000 mm 0 W/m 16,0 C 19,0 C 1,6 km/h (1 Bft) 100 %
07.07.2014 22:20 18,8 C 18,8 C 19,0 C 83 % 1010,6 hPa 0,0 l/m 0,0 km/h (0 Bft) N 0 0 min 0,000 mm 0 W/m 15,8 C 18,8 C 0,0 km/h (0 Bft) 100 %
07.07.2014 22:30 18,7 C 18,7 C 18,8 C 82 % 1010,6 hPa 0,0 l/m 0,0 km/h (0 Bft) N 0 0 min 0,000 mm 0 W/m 15,6 C 18,7 C 0,0 km/h (0 Bft) 100 %
07.07.2014 22:40 18,6 C 18,6 C 18,7 C 82 % 1010,5 hPa 0,0 l/m 0,0 km/h (0 Bft) N 0 0 min 0,000 mm 0 W/m 15,5 C 18,6 C 0,0 km/h (0 Bft) 100 %
07.07.2014 22:50 18,7 C 18,6 C 18,7 C 82 % 1010,4 hPa 0,0 l/m 0,0 km/h (0 Bft) W-SW 247 0 min 0,000 mm 0 W/m 15,6 C 18,7 C 1,6 km/h (1 Bft) 99 %
07.07.2014 23:00 18,7 C 18,7 C 18,7 C 83 % 1010,2 hPa 0,0 l/m 0,0 km/h (0 Bft) W-SW 247 0 min 0,025 mm 0 W/m 15,8 C 18,7 C 1,6 km/h (1 Bft) 100 %
07.07.2014 23:10 18,7 C 18,7 C 18,7 C 83 % 1010,1 hPa 0,0 l/m 0,0 km/h (0 Bft) W-SW 247 0 min 0,000 mm 0 W/m 15,8 C 18,7 C 1,6 km/h (1 Bft) 100 %
07.07.2014 23:20 18,7 C 18,7 C 18,7 C 84 % 1010,0 hPa 0,0 l/m 0,0 km/h (0 Bft) N 0 0 min 0,000 mm 0 W/m 15,9 C 18,7 C 0,0 km/h (0 Bft) 99 %
07.07.2014 23:30 18,2 C 18,2 C 18,7 C 78 % 1010,7 hPa 0,0 l/m 12,9 km/h (3 Bft) S-SO 157 0 min 0,000 mm 0 W/m 14,3 C 15,7 C 38,6 km/h (5 Bft) 100 %
07.07.2014 23:40 16,9 C 16,9 C 18,2 C 84 % 1011,6 hPa 2,6 l/m 30,6 km/h (5 Bft) S-SW 202 0 min 0,000 mm 0 W/m 14,2 C 10,3 C 64,4 km/h (8 Bft) 99 %
07.07.2014 23:50 15,9 C 15,9 C 16,9 C 86 % 1011,4 hPa 1,4 l/m 14,5 km/h (3 Bft) S-SW 202 0 min 0,000 mm 0 W/m 13,6 C 12,4 C 32,2 km/h (5 Bft) 100 %
_ Min-Zeit 23:50 23:50 01:30 18:00 23:20 - 01:20 - - - - - 23:50 23:40 03:10 12:00
Minimum _ 15,9 C 15,9 C 16,3 C 66 % 1010,0 hPa - 0,0 km/h (0 Bft) - - - - - 13,6 C 10,3 C 0,0 km/h (0 Bft) 91 %
_ Max-Zeit 18:00 18:00 18:00 01:10 11:40 23:40 23:40 - - 08:30 16:00 15:40 15:20 18:00 23:40 10:10
Maximum _ 24,2 C 24,1 C 24,2 C 87 % 1015,7 hPa 2,6 l/m 30,6 km/h
S-SW (5 Bft)
- - 10 min 0,331 mm 874 W/m 18,8 C 24,2 C 64,4 km/h
S-SW (8 Bft)
100 %
Durchschnitt _ 19,2 C 19,1 C 19,3 C 82 % 1013,3 hPa #11,0 l/m 1,7 km/h (1 Bft) S-SO - #9:20 h #2,387 mm 245 W/m 16,0 C 19,0 C 6,8 km/h (2 Bft) 98 %
PRIVATE WETTERSTATION BILLIGHEIM-ALLFELD - www.neckar-odenwald-wetter.de - Holger Sonntag